{"data":{"norad_id":49759,"intl_designator":"2021-115AM","name":"STARLINK-3204","alt_names":[],"object_type":"PAYLOAD","status":"ACTIVE","operator":null,"country":"US","launch_date":"2021-12-02","launch_site_code":"AFETR","launch_vehicle":null,"mission":null,"orbit_class":"UNKNOWN","rcs_meters":null,"size_class":null,"mass_kg":null,"dimensions":null,"purposes":["comms"],"wikipedia_slug":null,"has_3d_model":false,"image_url":null,"decayed_at":null,"tle_current":{"epoch":"2026-09-20T04:28:33.216384Z","epoch_age_seconds":72392,"freshness":"FRESH","line1":"1 49759U 21115AM  26263.18649556  .00000679  00000+0  31230-4 0  9991","line2":"2 49759  53.1612 330.8367 0001360  86.0762 274.0396 15.34388262265245","mean_motion":15.34388262,"eccentricity":0.000136,"inclination_deg":53.1612,"raan_deg":330.8367,"arg_perigee_deg":86.0762,"mean_anomaly_deg":274.0396,"bstar":3.123e-5,"rev_number":26524,"period_min":93.84847601239,"perigee_km":461.80776922174,"apogee_km":463.66848725662,"semimajor_km":6840.8751282392,"source":"CELESTRAK","updated_at":"2026-09-20T09:00:39.410506Z"}}}